Location: Banff
(51.1667°N, 115.5667°W)
Time: 21:58:23
(UTC+00:00)

Tiros 1 - Visible Passes

Search period start: 29 July 2021 00:00
Search period end: 08 August 2021 00:00
Orbit: 630 x 663 km, 48.4° (Epoch: 28 July)

Date Brightness Start Highest point End Pass type
(mag) Time Alt. Az. Time Alt. Az. Time Alt. Az.
29 Jul 7.1 05:36:13 10° WSW 05:40:54 63° S 05:45:13 12° E visible
29 Jul 7.4 07:18:19 10° W 07:22:49 46° SSW 07:22:49 46° SSW visible
30 Jul 7.3 04:20:09 10° WSW 04:24:48 55° SSE 04:29:25 10° E visible
30 Jul 7.1 06:02:06 10° W 06:06:46 60° S 06:09:19 25° ESE visible
30 Jul 8.4 07:44:21 10° W 07:46:55 25° WSW 07:46:55 25° WSW visible
31 Jul 7.2 04:45:57 10° WSW 04:50:39 63° S 04:55:19 10° E visible
31 Jul 7.4 06:28:02 10° W 06:32:35 47° SSW 06:33:31 41° SSE visible
31 Jul 9.4 08:10:44 10° W 08:11:07 11° WSW 08:11:07 11° WSW visible
01 Aug 7.2 05:11:50 10° W 05:16:31 61° S 05:20:09 16° ESE visible
01 Aug 8.0 06:54:04 10° W 06:57:46 32° SW 06:57:46 32° SW visible
02 Aug 7.4 05:37:46 10° W 05:42:20 49° SSW 05:44:26 28° SE visible
02 Aug 9.0 07:20:23 10° W 07:22:04 17° WSW 07:22:04 17° WSW visible
03 Aug 7.3 04:21:34 10° W 04:26:16 61° S 04:30:55 10° ESE visible
03 Aug 7.9 06:03:46 10° W 06:08:04 34° SSW 06:08:48 32° S visible
04 Aug 7.5 04:47:29 10° W 04:52:06 51° SSW 04:55:34 17° SE visible
04 Aug 8.6 06:30:02 10° W 06:33:11 21° SW 06:33:11 21° SW visible
05 Aug 7.9 05:13:29 10° W 05:17:49 36° SSW 05:19:59 24° SSE visible
05 Aug 9.5 06:57:16 10° WSW 06:57:37 11° WSW 06:57:37 11° WSW visible
06 Aug 7.5 03:57:12 10° W 04:01:51 52° SSW 04:06:26 10° ESE visible
06 Aug 8.5 05:39:42 10° W 05:43:25 23° SW 05:44:27 21° SSW visible
07 Aug 8.0 04:23:11 10° W 04:27:35 38° SSW 04:31:20 13° SE visible
07 Aug 9.3 06:06:42 10° WSW 06:08:50 13° SW 06:08:58 13° SW visible
